Regional Weather Roundup
Issued by NWS

Home | Current Version | Previous Version | Graphics & Text | Print | Product List | Glossary On
Versions: 1 2 3 4 5 6 7 8 9 10 11 12 13 14 15 16 17 18 19 20 21 22 23 24 25 26 27 28 29 30 31 32 33 34 35 36 37 38 39 40 41 42 43 44 45 46 47 48 49 50
000
ASUS43 KIND 230709
RWRIN

WEATHER ROUNDUP FOR INDIANA
NATIONAL WEATHER SERVICE INDIANAPOLIS IN
300 AM EDT WED JUL 23 2014

NOTE: "FAIR" INDICATES FEW OR NO CLOUDS BELOW 12,000 FEET WITH NO
SIGNIFICANT WEATHER AND/OR OBSTRUCTIONS TO VISIBILITY.

* - STATION DOES NOT REPORT WEATHER SUCH AS PRECIPITATION OR FOG.

+ - STATION NOT QUALITY CONTROLLED BY THE NATIONAL WEATHER SERVICE.
    USE DATA WITH CAUTION...ESPECIALLY DEWPOINT AND RELATIVE
    HUMIDITY OBSERVATIONS.

INZ001>003-010>013-019-020-230800-
NORTHWEST INDIANA

CITY           SKY/WX    TMP DP  RH WIND       PRES   REMARKS
GARY /AIRPORT/ CLOUDY    71  67  89 N17G25    30.02R
KNOX *+        CLOUDY    75  68  80 NW8G17    30.01R VSB 1
LA PORTE +     TSTM      69  65  90 W5        29.99F
MICHIGAN CITY+ LGT RAIN  68  66  94 W3        30.00R
MONTICELLO +   MOCLDY    74  70  88 SW6       29.98F
RENSSELAER +   MOCLDY    73  72  94 SW3       30.00R FOG
VALPARAISO     LGT RAIN  69  67  93 SW6       30.00F

$$

LMZ046-743>745-230800-
SOUTHERN LAKE MICHIGAN

STATION/POSITION TIME  TEMP WIND        PRES
                       AIR  DIR/SP/G
                 (UTC) (F)  (DEG/KT/KT) (MB)
BURNS HARBOR     0700   71  290/  8/ 47 1015.9F
MICHIGAN CITY    0700   71  240/ 14/ 17   N/A

$$

INZ004-005-014>016-021>024-230800-
NORTH CENTRAL INDIANA

CITY           SKY/WX    TMP DP  RH WIND       PRES   REMARKS
GOSHEN         TSTM      70  66  87 W9        30.02F
LOGANSPORT +   CLOUDY    72  68  88 CALM      30.01F FOG
PERU/GRISSOM   CLOUDY    73  73 100 SW5       30.00F
ROCHESTER +    MOCLDY    77  70  78 W3        30.01F
SOUTH BEND     CLOUDY    71  66  84 S8        29.99F THUNDER
WARSAW +       RAIN      73  63  68 N16G23    30.05R

$$

INZ006>009-017-018-025>027-230800-
NORTHEAST INDIANA

CITY           SKY/WX    TMP DP  RH WIND       PRES   REMARKS
ANGOLA *+      MOCLDY    73  64  73 W17       29.96F
AUBURN +       MOCLDY    77  66  69 W16G22    29.97F
FORT WAYNE     TSTM      74  71  91 SW12      29.97F FOG
HUNTINGTON +   LGT RAIN  74  70  88 W7        29.98F

$$

INZ028-029-035-036-043>045-051>053-230800-
WEST CENTRAL INDIANA

CITY           SKY/WX    TMP DP  RH WIND       PRES   REMARKS
GREENCASTLE +  PTCLDY    72  68  88 CALM      30.03S
LAFAYETTE      MOCLDY    73  70  90 CALM      29.99F
TERRE HAUTE    PTCLDY    71  67  87 CALM      30.01F

$$

INZ030>032-037>040-046>048-054>057-064-065-230800-
CENTRAL INDIANA

CITY           SKY/WX    TMP DP  RH WIND       PRES   REMARKS
CP ATTERBURY + PTCLDY    68  64  88 CALM      30.03F FOG
FRANKFORT +    CLOUDY   N/A N/A N/A CALM      30.02  HAZE
GREENWOOD *+   PTCLDY    75  72  88 CALM      30.04S
INDIANAPOLIS   MOCLDY    74  68  81 SW3       30.02S
-EAGLE CREEK   CLEAR     73  68  84 CALM      30.01F
KOKOMO *+      CLEAR     73  70  88 W6        30.00F
MARION +       CLEAR     71  68  89 W6        30.01F
MT COMFORT *+  PTCLDY    70 N/A N/A S3        30.03F
SHELBYVILLE    MOCLDY    73  68  84 CALM      30.03S
ZIONSVILLE +   CLEAR     71  66  84 CALM      30.03F FOG

$$

INZ033-034-041-042-049-050-058-059-230800-
EAST CENTRAL INDIANA

CITY           SKY/WX    TMP DP  RH WIND       PRES   REMARKS
MUNCIE         PTCLDY    75  66  73 SW7       30.01F

$$

INZ060-061-067>069-081>083-085>088-230800-
SOUTHWEST INDIANA

CITY           SKY/WX    TMP DP  RH WIND       PRES   REMARKS
EVANSVILLE     CLEAR     76  70  82 CALM      30.04S
HUNTINGBURG *+ CLEAR     72  68  88 CALM      30.04S
WASHINGTON +   CLEAR     68  68  99 SE5       30.01F

$$

INZ062-063-066-070>080-084-089>092-230800-
SOUTH CENTRAL AND SOUTHEAST INDIANA

CITY           SKY/WX    TMP DP  RH WIND       PRES   REMARKS
BEDFORD +      PTCLDY    70  66  88 CALM      30.03  FOG
BLOOMINGTON    PTCLDY    74  68  81 SW3       30.03F
NORTH VERNON + MOCLDY    68  68 100 CALM      30.05  FOG

$$



USA.gov is the U.S. government's official web portal to all federal, state and local government web resources and services.